Location: Dumpton Point
(51.3500°N, 1.4433°E)
Time: 02:33:48
(UTC+00:00)

SL-4 R/B - Pass Details

Date: 09 April 2020
Orbit: 428 x 666 km, 51.6° (Epoch: 26 May)

Event Time Altitude Azimuth Distance (km) Brightness Sun altitude
Rises 20:40:35 0° 266° (W) 2,392 6.0 -17.4°
Reaches altitude 10° 20:42:40 10° 267° (W) 1,527 5.0 -17.7°
Maximum altitude 20:46:04 85° 353° (N) 442 1.5 -18.1°
Enters shadow 20:46:58 47° 81° (E) 589 1.8 -18.2°
